sat.trackr.live / text

‹ back to catalog

STARLINK-11363 [DTC]

NORAD 62012 · 2024-213E

PAYLOAD ACTIVE UNKNOWN

§ Identity

Operator
Country
US
Launch date
2024-11-18
Launch site
AFWTR
Launch vehicle
Mass (kg)
RCS (m²)

Purposes: comms

External: N2YO · Heavens-Above · Gunter

§ Orbital elements

Epoch: 2026-05-24T22:49:08.351040Z

Period
91.73 min
Inclination
53.1583°
Eccentricity
0.0000915
Mean motion
15.69745688 rev/d
Perigee alt
359.0 km
Apogee alt
360.2 km
Semi-major
6,737.8 km
B*
8.3189e-4
RAAN
25.2634°
Arg perigee
94.0551°
Mean anomaly
266.0571°
Rev number
8,689

§ Raw data

STARLINK-11363 [DTC]1 62012U 24213E   26144.95079110  .00101586  00000+0  83189-3 0  99942 62012  53.1583  25.2634 0000915  94.0551 266.0571 15.69745688 86896

JSON: /api/v1/satellites/62012 · /tle

For live sub-satellite position, see the globe view (requires WebGL).

§ Visibility from observer

Set your observer location to see the next 7 days of passes ≥ 10°. The values pass through the URL so the page stays shareable.

No JS? Fill the form by hand. The geolocation button needs JavaScript.